Paganella, Italy

7:59 AM CET on February 07, 2016 (GMT +0100)
Paganella

Weather History for LIVP - July, 2013

Change the Weather History Date:

Sunday, July 14, 2013

  Actual Average Record
Temperature  
Mean Temperature 52 °F -  
Max Temperature 60 °F 57 °F 66 °F (2010)
Min Temperature 45 °F 43 °F 37 °F (2000)
Degree Days  
Heating Degree Days 12    
Growing Degree Days 2 (Base 50)    
Moisture  
Dew Point 43 °F    
Average Humidity 65    
Maximum Humidity 100    
Minimum Humidity 28    
Precipitation  
Precipitation 0.00 in 0.12 in - ()
Sea Level Pressure  
Sea Level Pressure 30.28 in    
Wind  
Wind Speed 6 mph ()    
Max Wind Speed 13 mph    
Max Gust Speed -    
Visibility 11.9 miles    
Events Thunderstorm    
Averages and records for this station are not official NWS values.
T = Trace of Precipitation, MM = Missing Value Source: Averaged Metar Reports

Daily Weather History Graph

Daily Weather History Graph

Search for Another Location

Airport or City:

Trip Planner

Search our weather history database for the weather conditions in past years. The results will help you decide how hot, cold, wet, or windy it might be!

Date:

Astronomy

Jul. 14, 2013 Rise Set
Actual Time 5:38 AM CEST 9:04 PM CEST
Civil Twilight 5:01 AM CEST 9:41 PM CEST
Nautical Twilight 4:11 AM CEST 10:30 PM CEST
Astronomical Twilight 3:08 AM CEST 11:33 PM CEST
Moon 12:01 PM CEST (7/14) 11:42 PM CEST (7/14)
Length of Visible Light 16h 40m
Length of Day
15h 26m
Waxing Crescent, 32% of the Moon is Illuminated
Jul 14
Waxing Crescent
Jul 16
First Quarter
Jul 22
Full
Jul 29
Last Quarter
Aug 6
New

Hourly Weather History & Observations

Time (CEST) Temp. Windchill Dew Point Humidity Pressure Visibility Wind Dir Wind Speed Gust Speed Precip Events Conditions
12:00 AM 54 °F - 48 °F 72%  in 6 mi North 5.8 mph - - Thunderstorm Light Thunderstorm
12:55 AM 48.2 °F - 44.6 °F 87% 30.27 in 6.2 mi North 4.6 mph - N/A   Scattered Clouds
1:00 AM 49 °F - 46 °F 83%  in 6 mi North 4.6 mph - -   Partly Cloudy
1:55 AM 48.2 °F - 42.8 °F 82% 30.27 in 6.2 mi Variable 3.5 mph - N/A   Partly Cloudy
2:00 AM 48 °F - 42 °F 74%  in 19 mi 6.7 mph - -   Partly Cloudy
2:00 AM - - - N/A% - - North - - N/A   Unknown
2:55 AM 48.2 °F - 42.8 °F 82% 30.27 in - Variable 3.5 mph - N/A   Clear
3:00 AM 48 °F - 43 °F 75%  in 12 mi 3.5 mph - -  
3:55 AM 48.2 °F - 44.6 °F 87% 30.27 in - Variable 3.5 mph - N/A   Clear
4:00 AM 48 °F - 44 °F 82%  in 19 mi 6.7 mph - -  
4:00 AM - - - N/A% - - North - - N/A   Unknown
4:55 AM 48.2 °F - 42.8 °F 82% 30.27 in - North 4.6 mph - N/A   Clear
5:00 AM 47 °F - 44 °F 83%  in 19 mi North 8.9 mph - -  
5:55 AM 46.4 °F 43.5 °F 42.8 °F 87% 30.27 in - North 5.8 mph - N/A   Clear
6:00 AM 47 °F - 43 °F 82%  in 19 mi North 5.8 mph - -  
6:55 AM 46.4 °F 45.2 °F 46.4 °F 100% 30.27 in - Variable 3.5 mph - N/A   Clear
7:55 AM 46.4 °F 43.5 °F 39.2 °F 76% 30.27 in - North 5.8 mph - N/A   Clear
8:00 AM 47 °F - 39 °F 67%  in 16 mi North 11.2 mph - -  
8:55 AM 50.0 °F - 37.4 °F 62% 30.27 in - North 6.9 mph - N/A   Clear
9:00 AM 50 °F - 38 °F 53%  in 19 mi North 13.4 mph - -  
9:55 AM 51.8 °F - 39.2 °F 62% 30.27 in - North 6.9 mph - N/A   Clear
10:00 AM 52 °F - 40 °F 52%  in 19 mi North 6.9 mph - -  
10:55 AM 51.8 °F - 33.8 °F 50% 30.27 in 6.2 mi North 4.6 mph - N/A   Partly Cloudy
11:00 AM 53 °F - 35 °F 37%  in 12 mi North 8.9 mph - -   Scattered Clouds
12:00 PM 53 °F - 29 °F 28%  in 12 mi North 8.9 mph - -   Scattered Clouds
12:55 PM 53.6 °F - 32.0 °F 44% 30.30 in 6.2 mi North 6.9 mph - N/A   Partly Cloudy
1:00 PM 54 °F - 31 °F 29%  in 12 mi North 13.4 mph - -   Scattered Clouds
1:55 PM 55.4 °F - 42.8 °F 63% 30.30 in 6.2 mi SW 5.8 mph - N/A   Partly Cloudy
2:00 PM 56 °F - 43 °F 50%  in 12 mi SW 11.2 mph - -   Scattered Clouds
2:00 PM - - - N/A% - - North - - N/A   Unknown
2:55 PM 57.2 °F - 44.6 °F 63% 30.30 in 6.2 mi SW 6.9 mph - N/A   Partly Cloudy
3:00 PM 58 °F - 45 °F 52%  in 12 mi SW 13.4 mph - -   Scattered Clouds
3:00 PM - - - N/A% - - North - - N/A   Unknown
3:55 PM 59.0 °F - 48.2 °F 67% 30.27 in 6.2 mi SSW 8.1 mph - N/A   Partly Cloudy
4:00 PM 59 °F - 47 °F 56%  in 16 mi SSW 8.1 mph - -   Scattered Clouds
4:55 PM 60.8 °F - 48.2 °F 63% 30.30 in 6.2 mi SSW 6.9 mph - N/A   Partly Cloudy
5:00 PM 60 °F - 48 °F 55%  in 16 mi SSW 13.4 mph - -   Scattered Clouds
5:55 PM 59.0 °F - 46.4 °F 63% 30.27 in 6.2 mi SSW 5.8 mph - N/A   Partly Cloudy
6:00 PM 59 °F - 46 °F 51%  in 16 mi SSW 5.8 mph - -   Scattered Clouds
6:55 PM 57.2 °F - 44.6 °F 63% 30.27 in 6.2 mi SSW 5.8 mph - N/A   Partly Cloudy
7:55 PM 57.2 °F - 46.4 °F 67% 30.27 in - SSW 4.6 mph - N/A   Clear
8:00 PM 58 °F - 47 °F 58%  in 16 mi SSW 4.6 mph - -  
8:55 PM 55.4 °F - 44.6 °F 67% 30.27 in - SSW 4.6 mph - N/A   Clear
9:00 PM 56 °F - 45 °F 58%  in 16 mi SSW 8.9 mph - -  
9:55 PM 55.4 °F - 42.8 °F 63% 30.27 in - SSW 3.5 mph - N/A   Clear
10:00 PM 55 °F - 44 °F 55%  in 12 mi SSW 6.7 mph - -  
10:55 PM 53.6 °F - 44.6 °F 72% 30.30 in - Calm Calm - N/A   Clear
11:00 PM 54 °F - 44 °F 61%  in 12 mi Calm Calm - -  
11:55 PM 53.6 °F - 42.8 °F 67% 30.30 in - North 6.9 mph - N/A   Clear